Overview Statistics Trail Chart Weather Telemetry Raw packets
 

This is the latest recevied weather packets stored in our database for station/object IONIA-WX. If no packets are shown the sender has not sent any weather packets the latest 10 day(s).

<< 24 25 26 27 28 29 30 >>
Time Temp. Humidity Pressure Rain* Wind** Luminosity Snow
1788018317 25° C 63% 991.6 hPa 0 mm - - -
1788016516 23.89° C 59% 991.3 hPa 0 mm - - -
1788015618 23.89° C 59% 991.3 hPa 0 mm - - -
1788014716 22.78° C 68% 990.7 hPa 0 mm - - -
1788013818 22.78° C 63% 991.2 hPa 0 mm - - -
1788012925 22.22° C 63% 991.2 hPa 0 mm - - -
1788012018 21.67° C 63% 991.2 hPa 0 mm - - -
1788011116 21.11° C 70% 990.2 hPa 0 mm - - -
1788010223 20.56° C 70% 990.2 hPa 0 mm - - -
1788009316 20° C 70% 990.3 hPa 0 mm - - -
1788008417 18.89° C 70% 990.3 hPa 0 mm - - -
1788007523 18.33° C 76% 991.1 hPa 0 mm - - -
1788006617 17.78° C 80% 990.8 hPa 0 mm - - -
1788005716 16.67° C 80% 990.8 hPa 0 mm - - -
1788004817 16.11° C 80% 990.8 hPa 0 mm - - -
1788003916 15.56° C 82% 990.4 hPa 0 mm - - -
1788003017 15.56° C 80% 990.2 hPa 0 mm - - -
1788002118 15° C 80% 990.2 hPa 0 mm - - -
1788001226 15° C 80% 990.2 hPa 0 mm - - -
1788000316 15° C 80% 990.6 hPa 0 mm - - -
1787999419 15° C 76% 990.8 hPa 0 mm - - -
1787998516 15° C 76% 990.8 hPa 0 mm - - -
1787997617 15° C 76% 990.8 hPa 0 mm - - -
1787996719 15° C 78% 990.4 hPa 0 mm - - -
1787995818 15° C 77% 990.3 hPa 0 mm - - -

* Rain latest hour (hover to see other rain measurements)
** Current wind speed in m/s (hover to see current wind gust speed)